This demonstration page uses our WeatherBlox Daily Observations layout. Learn more.

Left ArrowRight Arrow

44.8408, -93.29828

Hourly Observations for August 18, 2017

Temp ( °F °C ) Dew Point ( °F °C ) Humidity (%) Winds ( mph kmh ) Pressure ( in mb ) Visibility ( mi km ) Precip ( " mm )
12:53 am 00:53 Clear 63 17.2 58 14.4 84 84 W 5 7 29.83 1010 10 16 0.00 0.00
1:53 am 01:53 Clear 63 17.2 59 15 87 87 WNW 6 9 29.85 1011 10 16 0.00 0.00
2:53 am 02:53 Clear 62 16.7 58 14.4 86 86 NW 3 6 29.85 1011 10 16 0.00 0.00
3:53 am 03:53 Clear 61 16.1 57 13.9 87 87 Calm 29.85 1011 10 16 0.00 0.00
4:53 am 04:53 Clear 61 16.1 58 14.4 90 90 Calm 29.86 1011 10 16 0.00 0.00
5:53 am 05:53 Partly Cloudy 61 16.1 58 14.4 90 90 Calm 29.86 1011 10 16 0.00 0.00
6:53 am 06:53 Mostly Cloudy 63 17.2 58 14.4 84 84 Calm 29.87 1012 7 11 0.00 0.00
7:53 am 07:53 Cloudy 63 17.2 59 15 87 87 SSW 6 9 29.88 1012 8 13 0.00 0.00
8:53 am 08:53 Cloudy 66 18.9 60 15.6 81 81 W 3 6 29.87 1012 10 16 0.00 0.00
9:53 am 09:53 Cloudy 67 19.4 60 15.6 79 79 SW 5 7 29.89 1012 10 16 0.00 0.00
10:53 am 10:53 Cloudy with Light Rain 66 18.9 62 16.7 87 87 SW 7 11 29.90 1012 9 14 0.02 0.51
11:53 am 11:53 Cloudy with Light Rain 67 19.4 62 16.7 84 84 W 7 11 29.91 1013 7 11 0.00 0.03
12:44 pm 12:44 Cloudy with Thunderstorms 66 18.9 62 16.7 87 87 SW 7 11 29.91 1013 8 13 0.03 0.76
12:53 pm 12:53 Cloudy with Thunderstorms 66 18.9 62 16.7 87 87 SW 8 13 29.91 1013 8 13 0.03 0.76
1:03 pm 13:03 Cloudy with Rain 65 18.3 61 16.1 87 87 SW 8 13 29.91 1013 8 13 0.02 0.51
1:21 pm 13:21 Cloudy with Light Rain 65 18.3 61 16.1 87 87 W 7 11 29.91 1013 9 14 0.03 0.76
1:53 pm 13:53 Cloudy 65 18.3 61 16.1 87 87 SW 8 13 29.91 1013 9 14 0.11 2.79
2:53 pm 14:53 Cloudy 68 20 62 16.7 81 81 WSW 7 11 29.90 1012 9 14 0.00 0.03
3:53 pm 15:53 Cloudy 73 22.8 62 16.7 69 69 WNW 8 13 29.88 1012 10 16 0.00 0.00
4:53 pm 16:53 Mostly Cloudy 73 22.8 61 16.1 66 66 SW 8 13 29.87 1012 10 16 0.00 0.00
5:53 pm 17:53 Cloudy 73 22.8 60 15.6 64 64 WSW 7 11 29.88 1012 10 16 0.00 0.00
6:53 pm 18:53 Cloudy 72 22.2 60 15.6 66 66 VRB 3 6 29.88 1012 10 16 0.00 0.00
7:53 pm 19:53 Mostly Cloudy 71 21.7 58 14.4 63 63 WSW 5 7 29.88 1012 10 16 0.00 0.00
8:53 pm 20:53 Mostly Cloudy 69 20.6 58 14.4 68 68 W 5 7 29.90 1012 10 16 0.00 0.00
9:53 pm 21:53 Mostly Cloudy 68 20 59 15 73 73 Calm 29.91 1013 9 14 0.00 0.00
10:53 pm 22:53 Mostly Cloudy 67 19.4 60 15.6 79 79 S 3 6 29.91 1013 8 13 0.00 0.00
11:53 pm 23:53 Mostly Cloudy 66 18.9 60 15.6 81 81 Calm 29.91 1013 8 13 0.00 0.00

Powered by AerisWeather